This is the latest recevied weather packets stored in our database for station/object SV9TNF-56. If no packets are shown the sender has not sent any weather packets the latest 10 day(s).
| Time | Temp. | Humidity | Pressure | Rain* | Wind** | Luminosity | Snow |
|---|---|---|---|---|---|---|---|
| 1788182569 | 27.78° C | 50% | 1011.5 hPa | 0 mm | 4.92 m/s, 242° | - | - |
| 1788182269 | 27.78° C | 50% | 1011.5 hPa | 0 mm | 5.36 m/s, 235° | - | - |
| 1788181969 | 27.22° C | 54% | 1011.5 hPa | 0 mm | 6.26 m/s, 162° | - | - |
| 1788181669 | 27.78° C | 53% | 1011.5 hPa | 0 mm | 8.05 m/s, 162° | - | - |
| 1788181369 | 27.78° C | 52% | 1011.5 hPa | 0 mm | 16.99 m/s, 181° | - | - |
| 1788181068 | 27.22° C | 51% | 1011.5 hPa | 0 mm | 8.94 m/s, 228° | - | - |
| 1788180769 | 27.22° C | 54% | 1011.5 hPa | 0 mm | 4.92 m/s, 120° | - | - |
| 1788180468 | 27.78° C | 52% | 1011.9 hPa | 0 mm | 4.92 m/s, 204° | - | - |
| 1788180168 | 27.22° C | 55% | 1011.9 hPa | 0 mm | 2.68 m/s, 170° | - | - |
| 1788179868 | 26.67° C | 58% | 1011.5 hPa | 0 mm | 5.36 m/s, 133° | - | - |
| 1788179568 | 26.11° C | 63% | 1011.5 hPa | 0 mm | 15.2 m/s, 96° | - | - |
| 1788179268 | 26.11° C | 63% | 1011.9 hPa | 0 mm | 18.33 m/s, 114° | - | - |
| 1788178968 | 26.11° C | 64% | 1011.9 hPa | 0 mm | 7.15 m/s, 78° | - | - |
| 1788178668 | 26.11° C | 64% | 1011.9 hPa | 0 mm | 13.41 m/s, 57° | - | - |
| 1788178368 | 27.22° C | 59% | 1012.2 hPa | 0 mm | 7.6 m/s, 119° | - | - |
| 1788178068 | 27.22° C | 57% | 1011.9 hPa | 0 mm | 7.15 m/s, 126° | - | - |
| 1788177767 | 27.22° C | 58% | 1012.2 hPa | 0 mm | 7.6 m/s, 108° | - | - |
| 1788177467 | 27.22° C | 58% | 1011.9 hPa | 0 mm | 7.15 m/s, 246° | - | - |
| 1788177167 | 27.78° C | 57% | 1012.2 hPa | 0 mm | 8.94 m/s, 125° | - | - |
| 1788176867 | 27.78° C | 56% | 1012.2 hPa | 0 mm | 9.83 m/s, 186° | - | - |
| 1788176567 | 27.22° C | 55% | 1012.2 hPa | 0 mm | 12.07 m/s, 88° | - | - |
| 1788176267 | 27.78° C | 56% | 1012.2 hPa | 0 mm | 15.2 m/s, 147° | - | - |
| 1788175967 | 27.22° C | 57% | 1012.2 hPa | 0 mm | 16.99 m/s, 277° | - | - |
| 1788175667 | 26.67° C | 60% | 1012.2 hPa | 0 mm | 16.99 m/s, 216° | - | - |
| 1788175367 | 26.67° C | 60% | 1012.5 hPa | 0 mm | 13.41 m/s, 292° | - | - |
* Rain latest hour (hover to see other rain measurements)
** Current wind speed in m/s (hover to see current wind gust speed)